Vertical_Velocity
-1 -1 -1 -1 -2 -1 -1 -2 -3 -1 -1 -2 -4 -5 -3 -2 -2 -0 -9 -2 -3 -2 -0 0 -0 -1 0 -0 3 -1 -1 -6 -6 -2 -20 4 4 27 -9 -4 43 -14 -36 -8 -1
-0 -1 -1 -1 -1 -2 -2 -3 -1 -1 -3 -4 -4 -3 -3 -4 -3 -5 -4 -3 -1 -3 -2 -2 2 -4 -3 1 -0 4 -3 -2 -1 -3 -7 3 18 59 -21 3 -8 10 49 -1 -5
0 0 -0 -0 -1 -2 -1 -2 -2 -2 -4 -3 -3 -3 -3 -4 -1 -6 -2 -1 -2 -2 -1 -1 -2 -1 -0 -1 -1 1 -4 2 -14 18 1 4 -9 7 16 -6 37 58 12 1 -2
-2 -2 -0 -0 -1 -1 -2 -3 -3 -1 -3 -3 -3 -3 -1 -0 -11 -2 -1 -2 -2 0 0 -0 -2 -1 1 -3 2 -6 -0 -3 -10 6 -5 2 -1 -3 -1 5 18 -14 8 -17 -12
-0 -1 -1 -2 -2 -1 -1 -3 -2 -2 -3 -2 -3 -3 -1 -3 5 3 -2 -1 -1 -2 1 4 2 -1 3 2 3 -2 8 -3 1 1 -12 2 -5 -2 -17 2 7 18 28 6 31
-2 -0 -0 -1 -1 -0 -0 -1 -2 -1 -1 -2 -3 -3 -2 -7 -1 -2 -2 -3 -4 -3 -2 1 2 4 2 -0 2 1 -3 -2 3 -9 -16 3 -8 -1 -4 -13 5 33 20 3 -0
2 -1 -1 -2 -1 -0 0 0 -2 -1 -0 -1 -2 -3 2 -5 -2 -1 -1 -5 -5 -8 -1 -6 -1 -1 6 1 -1 -1 5 -2 -6 -3 -13 12 -12 -12 0 -0 1 3 -30 155 3
1 0 -1 0 -1 -1 -1 -0 -1 -1 1 1 -2 -4 -0 -2 -3 -0 -3 1 -2 -5 -6 -1 0 -2 -4 0 2 4 -1 1 -6 -10 -3 10 -36 7 -8 -8 -4 18 -16 -44 10
-2 -0 0 0 -1 -1 -1 -0 0 -1 -1 -0 -0 0 -7 -2 -1 -3 -0 2 1 -2 -6 -4 -1 -3 2 2 2 1 -0 -5 2 2 -4 5 -13 -13 -10 -11 -2 16 -2 21 -4
0 -0 -0 -2 -1 -1 -1 0 -1 0 -2 -3 -3 -3 -4 -5 -2 -1 -0 -2 2 -3 -7 -8 -5 -1 3 -2 1 12 -3 7 -2 7 3 2 -15 -4 24 7 5 10 -2 1 2
-1 -0 1 0 -1 -1 -1 1 1 -4 1 -3 -4 -0 -1 -3 -3 -0 -3 -0 2 -8 -3 -4 -7 -2 -2 1 1 6 1 1 8 -22 16 -10 -9 4 -20 7 -3 1 2 3 2
-1 -0 -3 1 0 -1 1 -3 -3 -0 -3 -2 0 -0 -1 -1 -6 -1 -5 2 -3 1 3 -1 -1 -6 -8 -1 -1 -3 1 -7 1 11 4 0 -14 -5 8 10 -7 -5 2 2 -1
-1 -2 0 -2 -1 -1 -0 0 -1 -2 -3 -2 -2 -0 -1 0 0 -5 -3 -2 1 -3 10 2 -0 0 0 -5 7 1 4 3 6 -5 -2 7 -6 -9 -12 2 13 -6 5 1 -5
2 1 -1 -3 -4 -2 -1 0 0 1 -2 -3 -2 -2 0 -2 -1 1 -1 -3 1 -5 -4 -2 -1 -1 3 -6 -0 8 -4 4 0 3 -1 21 -6 -13 -18 -13 15 -3 -4 1 4
2 1 -3 -1 -0 -2 -2 -2 0 0 -4 -4 -3 -5 -1 -1 -2 4 0 -2 -1 5 2 -1 -1 -4 2 -2 -7 -13 -3 0 -2 -0 7 1 10 -19 10 -11 9 -3 -4 -1 1
-2 -2 2 -0 2 -2 1 -1 -2 1 -4 -1 -2 -2 -4 -7 -1 -2 2 2 2 -4 2 2 -2 -1 -3 5 -2 -0 -2 3 2 6 2 -9 8 -19 -1 -25 6 1 -0 -0 2
-4 0 -2 -2 -5 -2 -4 -0 -5 -1 -0 -2 -1 -4 0 1 -4 -3 -2 -3 1 -5 -0 7 -1 -3 -0 -3 1 -4 -4 -4 -0 2 -3 -0 14 -37 16 26 23 -4 -8 -1 1
-1 -2 1 1 -1 3 -4 -2 -3 -1 -0 0 1 4 -6 -3 -0 0 -4 -6 -0 2 -1 -1 0 -0 1 -0 4 5 -5 0 2 0 -5 -4 -5 -25 -7 -7 2 10 -5 -6 5
2 -7 -3 6 0 1 1 -2 -2 -1 -1 -0 0 -1 -2 -3 -3 -0 0 -3 -2 1 1 -1 1 2 -0 -1 -0 6 2 10 1 3 3 -3 0 0 -7 -1 4 -2 15 5 -3
-6 0 -1 0 0 -0 1 -2 3 3 3 2 0 1 -1 3 -2 -1 -3 -0 -3 -3 2 2 -3 -4 -0 1 1 -3 2 -0 1 -1 -1 -3 3 -3 1 -0 -2 -0 2 12 7
-1 -6 -4 2 2 1 -3 -6 -2 5 4 2 -0 -2 -0 1 0 0 -1 -3 1 -1 -3 3 2 -1 -2 -1 3 -1 -2 -0 1 1 -1 -0 -2 -1 1 2 1 -1 4 3 3
-5 -4 -2 -4 3 -3 -2 1 3 -6 6 2 -0 3 0 2 -1 -1 -2 -1 -1 -2 -3 -5 2 -3 1 1 2 2 -2 -1 2 -3 1 3 -10 1 1 -2 -3 0 -1 -4 0
1 -3 6 4 -8 2 1 -1 2 -1 -1 -3 2 4 5 -3 -2 2 -0 2 5 2 -4 -3 -1 -4 10 1 0 -1 2 3 4 3 -6 3 -12 1 1 -0 -1 -0 1 -2 0
-6 -3 -3 0 4 7 3 6 1 -2 1 4 2 2 4 -2 7 -5 1 -2 2 3 5 -0 -2 -4 -6 2 3 -1 0 1 4 3 -4 -4 5 -0 -2 0 1 -3 -1 -0 1
-2 -1 -7 -4 5 7 7 10 -4 2 3 5 1 10 10 -2 -0 -9 4 2 1 2 1 6 -3 -2 -1 -4 1 -0 -2 6 -2 3 -2 -1 -1 1 -5 1 0 4 -4 -1 -0
-1 -3 -1 3 2 -2 5 7 8 1 17 -3 0 10 7 -4 13 8 2 2 2 0 -1 1 -0 1 -9 -1 0 -3 -0 6 4 1 -5 4 -11 2 0 2 -2 2 3 2 -1
0 -2 -1 3 -0 -0 -2 -2 1 11 -4 15 16 2 1 5 4 3 5 5 0 5 5 -0 -1 2 -6 1 -1 -11 -2 -3 -1 1 2 1 2 -0 -1 -1 3 0 2 3 3
Height
3147 3145 3143 3141 3140 3137 3134 3132 3128 3124 3121 3118 3115 3110 3106 3102 3098 3095 3091 3090 3086 3085 3084 3084 3085 3085 3085 3087 3089 3091 3091 3088 3093 3098 3100 3105 3110 3112 3114 3111 3111 3112 3110 3120 3128
3147 3146 3144 3142 3140 3138 3135 3132 3129 3125 3122 3119 3114 3110 3105 3100 3096 3092 3089 3085 3081 3082 3082 3083 3084 3083 3084 3086 3087 3088 3087 3087 3094 3098 3100 3099 3104 3108 3107 3101 3102 3096 3107 3109 3122
3148 3146 3144 3142 3140 3138 3135 3132 3129 3126 3123 3119 3114 3111 3105 3100 3095 3091 3086 3083 3081 3080 3080 3082 3082 3082 3082 3083 3084 3085 3083 3089 3091 3094 3095 3094 3095 3098 3099 3092 3111 3082 3109 3106 3116
3147 3146 3145 3143 3140 3138 3136 3133 3129 3126 3123 3119 3115 3111 3107 3102 3099 3094 3086 3082 3080 3079 3080 3081 3081 3081 3082 3082 3082 3082 3083 3087 3087 3090 3090 3090 3092 3093 3096 3092 3096 3096 3107 3108 3113
3148 3145 3143 3142 3140 3137 3135 3132 3129 3125 3122 3118 3115 3110 3108 3102 3101 3094 3088 3083 3080 3079 3079 3079 3080 3080 3080 3080 3080 3080 3082 3083 3086 3087 3086 3089 3088 3090 3090 3091 3095 3100 3102 3111 3108
3148 3145 3143 3140 3138 3135 3133 3130 3128 3125 3121 3118 3115 3111 3108 3104 3100 3094 3088 3085 3082 3080 3079 3079 3079 3079 3078 3078 3079 3079 3079 3080 3082 3082 3085 3088 3088 3088 3090 3092 3093 3100 3100 3102 3106
3148 3145 3142 3140 3136 3134 3131 3129 3126 3123 3120 3117 3114 3111 3108 3105 3101 3097 3090 3088 3084 3082 3081 3080 3079 3077 3075 3076 3077 3077 3079 3078 3079 3082 3082 3085 3083 3083 3088 3089 3090 3094 3099 3070 3096
3148 3145 3142 3139 3136 3133 3130 3127 3124 3122 3119 3116 3113 3111 3108 3105 3102 3098 3093 3090 3086 3083 3081 3080 3079 3077 3076 3075 3075 3076 3077 3077 3077 3079 3080 3085 3078 3083 3087 3088 3089 3092 3094 3088 3096
3149 3145 3142 3138 3135 3132 3129 3125 3122 3120 3117 3114 3112 3110 3107 3105 3102 3098 3095 3091 3087 3085 3082 3080 3079 3078 3077 3076 3075 3074 3075 3075 3077 3075 3077 3080 3078 3081 3085 3087 3088 3092 3093 3093 3098
3149 3145 3142 3138 3135 3131 3127 3124 3120 3118 3116 3113 3111 3111 3107 3105 3101 3098 3095 3091 3087 3084 3082 3080 3079 3078 3078 3076 3075 3069 3075 3075 3074 3075 3074 3077 3076 3078 3081 3083 3085 3087 3090 3094 3096
3148 3145 3142 3138 3134 3131 3127 3124 3122 3117 3114 3112 3111 3108 3106 3105 3101 3099 3095 3091 3087 3082 3081 3080 3079 3078 3077 3076 3075 3075 3075 3075 3074 3072 3075 3076 3076 3075 3075 3080 3079 3080 3083 3089 3094
3148 3145 3142 3138 3134 3130 3126 3122 3118 3116 3112 3111 3110 3107 3105 3103 3101 3098 3095 3092 3087 3084 3084 3082 3078 3077 3076 3075 3075 3075 3075 3074 3073 3074 3074 3074 3072 3072 3074 3076 3076 3078 3079 3081 3085
3147 3145 3142 3138 3135 3131 3126 3122 3117 3112 3111 3110 3109 3106 3105 3103 3100 3097 3096 3092 3088 3085 3085 3082 3080 3076 3074 3074 3074 3074 3074 3073 3073 3071 3071 3072 3069 3069 3068 3071 3074 3074 3076 3078 3082
3147 3144 3141 3138 3136 3131 3126 3121 3117 3112 3110 3111 3108 3106 3104 3101 3098 3096 3094 3094 3089 3086 3083 3081 3079 3076 3074 3074 3074 3073 3072 3071 3070 3071 3069 3069 3065 3061 3065 3067 3069 3071 3070 3075 3079
3145 3143 3140 3136 3134 3130 3127 3121 3117 3113 3112 3111 3107 3105 3102 3101 3098 3095 3093 3090 3088 3086 3084 3082 3078 3075 3074 3072 3073 3073 3071 3069 3068 3068 3068 3065 3064 3058 3060 3062 3065 3066 3068 3071 3073
3143 3141 3138 3136 3133 3130 3125 3121 3117 3115 3109 3108 3106 3103 3100 3097 3096 3093 3091 3089 3086 3084 3081 3079 3077 3076 3074 3072 3072 3072 3070 3068 3067 3067 3065 3059 3061 3054 3052 3054 3061 3063 3065 3068 3071
3140 3138 3136 3133 3131 3127 3124 3121 3118 3113 3112 3108 3104 3100 3098 3095 3093 3091 3089 3086 3086 3082 3080 3078 3075 3074 3073 3072 3071 3070 3071 3070 3069 3067 3063 3056 3056 3053 3049 3054 3058 3060 3062 3065 3069
3135 3133 3132 3130 3127 3125 3123 3121 3116 3112 3109 3107 3102 3098 3095 3095 3092 3089 3087 3085 3084 3083 3079 3078 3075 3072 3072 3071 3071 3069 3070 3072 3070 3066 3061 3056 3052 3049 3051 3053 3055 3057 3059 3063 3066
3128 3127 3126 3126 3123 3121 3120 3117 3114 3110 3107 3104 3101 3096 3093 3091 3092 3089 3085 3084 3084 3082 3082 3077 3074 3072 3070 3069 3070 3068 3068 3068 3066 3061 3061 3051 3049 3048 3049 3050 3052 3054 3056 3060 3064
3120 3119 3120 3119 3117 3115 3114 3111 3109 3107 3105 3102 3100 3097 3093 3091 3087 3086 3084 3082 3080 3080 3079 3077 3073 3070 3068 3068 3068 3067 3067 3067 3065 3064 3058 3050 3048 3045 3045 3048 3049 3051 3054 3058 3061
3112 3109 3111 3111 3109 3108 3105 3103 3103 3103 3102 3100 3096 3093 3091 3088 3085 3083 3080 3080 3077 3077 3076 3075 3074 3070 3068 3065 3064 3065 3064 3065 3064 3062 3059 3055 3047 3046 3044 3046 3048 3050 3053 3055 3058
3104 3102 3101 3102 3104 3100 3097 3097 3097 3097 3097 3095 3092 3089 3086 3086 3082 3079 3077 3074 3074 3073 3072 3072 3071 3067 3064 3063 3062 3062 3061 3062 3062 3059 3057 3054 3048 3045 3044 3044 3045 3047 3049 3050 3054
3094 3092 3093 3094 3091 3090 3090 3089 3089 3089 3089 3088 3086 3084 3082 3082 3081 3076 3074 3072 3070 3069 3068 3069 3069 3066 3062 3062 3059 3058 3058 3058 3057 3056 3052 3056 3047 3044 3043 3043 3043 3044 3046 3047 3051
3087 3085 3082 3083 3085 3084 3085 3083 3083 3083 3082 3080 3079 3079 3078 3077 3076 3073 3070 3069 3068 3066 3064 3064 3063 3063 3062 3059 3058 3055 3054 3054 3053 3052 3047 3046 3044 3042 3041 3040 3039 3040 3042 3045 3047
3080 3079 3077 3077 3079 3078 3078 3076 3077 3077 3077 3076 3073 3075 3074 3071 3070 3067 3067 3064 3063 3062 3061 3060 3056 3056 3055 3054 3053 3050 3048 3048 3046 3044 3044 3041 3039 3039 3037 3037 3036 3037 3040 3041 3044
3075 3072 3070 3068 3070 3071 3071 3070 3071 3072 3074 3071 3068 3071 3069 3067 3067 3066 3062 3060 3058 3057 3055 3055 3052 3050 3047 3047 3046 3043 3041 3040 3038 3037 3035 3035 3033 3035 3035 3034 3033 3035 3035 3038 3040
3068 3065 3062 3056 3058 3060 3061 3062 3060 3063 3062 3064 3064 3059 3059 3060 3059 3057 3056 3054 3053 3052 3051 3050 3050 3049 3043 3042 3041 3038 3033 3033 3032 3031 3030 3029 3031 3030 3031 3030 3031 3033 3035 3038 3040